Regional Weather Roundup
Issued by NWS Goodland, KS

Home | Current Version | Previous Version | Text Only | Print | Product List | Glossary Off
Versions: 1 2 3 4 5 6 7 8 9 10 11 12 13 14 15 16 17 18 19 20 21 22 23 24 25 26 27 28 29 30 31 32 33 34 35 36 37 38 39 40 41 42 43 44 45 46 47 48 49 50

450
ASUS43 KGLD 251959
RWRGLD

GOODLAND FORECAST AREA HOURLY WEATHER ROUNDUP
NATIONAL WEATHER SERVICE GOODLAND KS
200 PM MDT MON JUL 25 2016

...OFFICIAL OBSERVATIONS...

CITY           SKY/WX    TMP DP  RH WIND       PRES   REMARKS
GOODLAND KS    PTSUNNY   81  63  54 S17       30.17F
HILL CITY KS   MOSUNNY   85  67  54 SE8       30.11F
IMPERIAL NEB   SUNNY     88  58  36 SE16      30.12F
MCCOOK NEB     MOSUNNY   89  63  41 SE16G22   30.11F
AKRON CO       SUNNY     82  61  48 SE24G32   30.17F
BURLINGTON CO  MOSUNNY   80  63  55 SE21      30.19F
LIMON CO       SUNNY     86  56  35 S20G28    30.21F
$$

...UNOFFICIAL OBSERVATIONS...

CITY           SKY/WX    TMP DP  RH WIND       PRES   REMARKS
COLBY KS       SUNNY     84  66  54 SE10G18   30.16F
LENORA KS        N/A     83  32  16 MISG        N/A
NORTON KS      MOSUNNY   82  61  47 SE12      30.12F
YUMA CO          N/A     81  67  61 SE10G21     N/A
$$




USA.gov is the U.S. government's official web portal to all federal, state and local government web resources and services.